Content
SEND FEEDBACK

Daily
Averages
Monthly
Summary
Bosnia and Herzegovina

POTOCI, BOSNIA AND HERZEGOVINA


Home > Europe > Bosnia and Herzegovina
Elevation: 354 feet     Latitude: 43 21N     Longitude: 017 48E

WEATHER
 
SELECT A DAY
Number of Records: 172,722;   Date Range: 2/20/97 - 7/27/14
 
SHARE

PRINT THIS DATA

[ ← Previous Day ]
WEATHER ALMANAC - JANUARY 31, 2013
[ Next Day → ]
[ °C ]   °F
Weather ElementAverageHighLow
Temperature37.6 °F51.8 °F (2:00 pm)28.4 °F (1:00 am)
Dewpoint33 °F41 °F (11:30 am)28.4 °F (1:00 am)
Humidity85.2 %100 % (1:00 am)50 % (3:30 pm)
Barometer30.10 in30.18 in (9:00 am)29.95 in (3:00 am)
Wind Speed2 mph5.8 mph (5:30 pm)
Weather ElementAverage
Visibility2.9 mi
Wind DirectionNNE (16.5 °)

Weather ElementTotal
Precipitation---
Heating Degree Days24.9 (Base 65)
Averaged from 40 records on January 31, 2013
WEATHER CONDITIONS BREAKOUT
WIND DIRECTION BREAKOUT
WEATHER BY HOUR - JANUARY 31, 2013
[ °C ]   °F
Local TimeTemperatureDewpointHumidityBarometerVisibilityWind DirectionWind SpeedGust SpeedPrecipitationEventsConditions
1:00 AM28.4 °F28.4 °F100 %29.98 in1.2 miVariable1.2 mphMist
2:00 AM28.4 °F28.4 °F100 %29.98 in1.2 miVariable2.3 mphMist
3:00 AM28.4 °F28.4 °F100 %29.95 in1.2 miVariable1.2 mphMist
4:00 AM30.2 °F28.4 °F93 %29.95 in1.2 miVariable1.2 mphMist
5:00 AM30.2 °F30.2 °F100 %29.98 in1.2 miVariable1.2 mphMist
5:30 AM30.2 °F30.2 °F100 %30.04 in1.2 miVariable2.3 mphMist
6:00 AM30.2 °F30.2 °F100 %30.06 in1.2 miSE (130°)3.5 mphMist
6:30 AM32.0 °F32.0 °F100 %30.12 in1.2 miVariable1.2 mphMostly Cloudy
7:00 AM32.0 °F32.0 °F100 %30.12 in0.9 miVariable1.2 mphRainLight Rain
7:30 AM32.0 °F32.0 °F100 %30.15 in0.9 miVariable1.2 mphRainLight Rain
8:00 AM32.0 °F32.0 °F100 %30.15 in1.6 miVariable2.3 mphRainLight Rain
8:30 AM33.8 °F33.8 °F100 %30.15 in2.2 miVariable1.2 mphRainLight Rain
9:00 AM33.8 °F33.8 °F100 %30.18 in1.2 miSW (230°)4.6 mphRainLight Rain
9:30 AM33.8 °F33.8 °F100 %30.15 in0.9 miVariable2.3 mphMostly Cloudy
10:00 AM35.6 °F35.6 °F100 %30.18 in1.2 miVariable3.5 mphScattered Clouds
10:30 AM39.2 °F39.2 °F100 %30.18 in1.9 miVariable1.2 mphScattered Clouds
11:00 AM41.0 °F39.2 °F93 %30.18 in1.9 miVariable1.2 mphScattered Clouds
11:30 AM44.6 °F41.0 °F87 %30.18 in4.3 miVariable2.3 mphScattered Clouds
12:00 PM46.4 °F39.2 °F76 %30.18 in5.0 miVariable1.2 mphScattered Clouds
12:30 PM48.2 °F39.2 °F71 %30.15 in6.2 miVariable2.3 mphPartly Cloudy
1:00 PM48.2 °F39.2 °F71 %30.15 in6.2 miVariable1.2 mphPartly Cloudy
1:30 PM48.2 °F35.6 °F62 %30.15 in6.2 miVariable1.2 mphPartly Cloudy
2:00 PM51.8 °F37.4 °F58 %30.15 in6.2 miVariable1.2 mphPartly Cloudy
2:30 PM50.0 °F37.4 °F62 %30.12 in6.2 miVariable3.5 mphPartly Cloudy
3:00 PM50.0 °F37.4 °F62 %30.12 in6.2 miVariable3.5 mphPartly Cloudy
3:30 PM51.8 °F33.8 °F50 %30.12 in6.2 miVariable1.2 mphPartly Cloudy
4:00 PM48.2 °F33.8 °F58 %30.12 inSouth (190°)3.5 mphClear
4:30 PM44.6 °F33.8 °F66 %30.09 inVariable3.5 mphClear
5:00 PM42.8 °F32.0 °F66 %30.09 inVariable2.3 mphClear
5:30 PM37.4 °F30.2 °F75 %30.09 inESE (110°)5.8 mphClear
6:00 PM39.2 °F32.0 °F75 %30.12 inVariable2.3 mphClear
6:30 PM35.6 °F30.2 °F81 %30.09 inVariable3.5 mphClear
7:00 PM37.4 °F30.2 °F75 %30.12 inVariable1.2 mphClear
7:30 PM33.8 °F30.2 °F87 %30.12 inVariable1.2 mphClear
8:00 PM33.8 °F30.2 °F87 %30.09 inCalmClear
8:30 PM33.8 °F30.2 °F87 %30.12 inVariable1.2 mphClear
9:00 PM32.0 °F28.4 °F87 %30.12 inVariable1.2 mphClear
9:30 PM32.0 °F30.2 °F93 %30.09 inVariable2.3 mphClear
10:00 PM32.0 °F30.2 °F93 %30.06 inVariable1.2 mphClear
11:00 PM32.0 °F30.2 °F93 %30.04 inCalmClear
Hourly data recorded from LQMO, located miles away from Potoci, Bosnia and Herzegovina







STORIES FROM OUR PARTNERS